Aérodrome :
LOGIN :

S'inscrire | Disclaimer

   EN    FR    IT 

 










Légende :    VFR   VFR Marginal   IFR   IFR Intensif   IFR Très Intensif
Visi : 
Plafond : 
>= 8 km
>= 3000ft
5 à 8 km
1000 à 3000 ft
1500m à 5 km
500 à 1000 ft
800 à 1500m
200 à 500 ft
< 800m
< 200 ft
Symboles :   Orages  Brouillard  Fortes neiges  Fortes précipitations  Vent > 20 kt
SIGMETs :   Divers  Orages  Givrage  Turbulence  Onde Orograph.  Cendres Volcan.







- Altitude de l'aérodrome : 1649 ft
- Code IATA : HHN


EDFH - Frankfurt-Hahn Rhineland-Palatinate

DERNIER METAR :
  • 150120Z 13003KT 080V190 9999 BKN020 M03/M07 Q1022

METARs EXPIRÉS :
  • 150050Z 13003KT 080V180 9999 BKN020 M03/M07 Q1022
  • 150020Z 12004KT 070V170 9999 BKN020 M03/M07 Q1022
  • 142350Z 12005KT 050V160 9999 BKN020 M03/M07 Q1022
  • 142320Z 09005KT 040V150 9999 BKN020 M03/M07 Q1022
  • 142250Z 10004KT 050V170 9999 BKN020 M03/M07 Q1022

TAF TAF EDFH
Valide du 15 à 00h jusqu'au 16 à 00h UTC


142300Z 1500/1524 10006KT 9999 BKN020
TEMPO 1503/1509 BKN012
BECMG 1509/1512 13012KT
Pas de NOTAMs connus pour ce terrain.



MET'MAP, la Météo Aéronautique d'un coup d'oeil ! - Copyright ORBIFLY Décembre 2007 - Disclaimer

ORBIFLY MET'MAP TEAM :

Programmation & Développement : Alexandra Zaïnal
Conception & Développement : Baudouin d'Aumeries
Co-Programmation & Développement : Marc-Olivier Méhu
Soutien technique & logistique : Manuel Goepfert

Contact : metmap@orbifly.com




SOURCES & CREDITS :

   NOAA